Content
SEND FEEDBACK

Daily
Averages
Monthly
Summary
United States of America

MCKINLEY PARK, ALASKA


Home > North America > United States > Alaska
Elevation: 2070 feet     Latitude: 63 43N     Longitude: 148 58W

WEATHER
 
SELECT A DAY
Number of Records: 423,739;   Date Range: 11/7/95 - 11/22/14
 
SHARE

PRINT THIS DATA

[ ← Previous Day ]
WEATHER ALMANAC - FEBRUARY 13, 2013
[ Next Day → ]
[ °C ]   °F
Weather ElementAverageHighLow
Temperature24.7 °F32 °F (12:36 pm)12.2 °F (12:36 am)
Dewpoint16.8 °F19.4 °F (11:16 am)10.4 °F (12:36 am)
Humidity72.9 %93 % (2:56 am)55 % (1:16 pm)
Barometer29.69 in29.72 in (2:36 am)29.68 in (6:36 am)
Wind Speed4.1 mph9.2 mph (12:16 pm)
Wind Gust17.3 mph (1:16 pm)
Weather ElementAverage
Visibility10 mi
Wind DirectionSE (133.6 °)

Weather ElementTotal
Precipitation---
Heating Degree Days42.9 (Base 65)
Averaged from 70 records on February 13, 2013
WEATHER CONDITIONS BREAKOUT
WIND DIRECTION BREAKOUT
WEATHER BY HOUR - FEBRUARY 13, 2013
[ °C ]   °F
Local TimeTemperatureDewpointHumidityBarometerVisibilityWind DirectionWind SpeedGust SpeedPrecipitationEventsConditions
12:36 AM12.2 °F10.4 °F92 %29.71 in10.0 miCalmClear
12:56 AM15.8 °F12.2 °F86 %29.71 in10.0 miSW (230°)3.5 mphClear
1:16 AM15.8 °F12.2 °F86 %29.71 in10.0 miCalmClear
1:36 AM15.8 °F12.2 °F86 %29.71 in10.0 miWSW (250°)3.5 mphPartly Cloudy
1:56 AM17.6 °F12.2 °F79 %29.71 in10.0 miWSW (250°)3.5 mphScattered Clouds
2:16 AM17.6 °F14.0 °F86 %29.71 in10.0 miCalmScattered Clouds
2:36 AM17.6 °F14.0 °F86 %29.72 in10.0 miCalmMostly Cloudy
2:56 AM17.6 °F15.8 °F93 %29.71 in10.0 miWNW (290°)3.5 mphOvercast
3:16 AM17.6 °F15.8 °F93 %29.71 in10.0 miCalmMostly Cloudy
3:36 AM17.6 °F15.8 °F93 %29.71 in10.0 miCalmMostly Cloudy
3:56 AM17.6 °F15.8 °F93 %29.70 in10.0 miCalmMostly Cloudy
4:16 AM17.6 °F15.8 °F93 %29.70 in10.0 miCalmMostly Cloudy
4:36 AM19.4 °F15.8 °F86 %29.70 in10.0 miNW (320°)3.5 mphPartly Cloudy
4:56 AM17.6 °F15.8 °F93 %29.70 in10.0 miNNW (330°)3.5 mphClear
5:16 AM19.4 °F15.8 °F86 %29.70 in10.0 miCalmScattered Clouds
5:56 AM21.2 °F17.6 °F86 %29.70 in10.0 miCalmScattered Clouds
6:16 AM21.2 °F15.8 °F80 %29.69 in10.0 miNorth (10°)3.5 mphPartly Cloudy
6:36 AM21.2 °F17.6 °F86 %29.68 in10.0 miCalmScattered Clouds
6:56 AM21.2 °F15.8 °F80 %29.68 in10.0 miCalmScattered Clouds
7:16 AM19.4 °F15.8 °F86 %29.68 in10.0 miNorth (350°)3.5 mphPartly Cloudy
7:36 AM19.4 °F15.8 °F86 %29.68 in10.0 miCalmPartly Cloudy
7:56 AM19.4 °F15.8 °F86 %29.68 in10.0 miSW (230°)4.6 mphClear
8:16 AM23.0 °F15.8 °F74 %29.68 in10.0 miSouth (190°)6.9 mphPartly Cloudy
8:36 AM24.8 °F17.6 °F74 %29.68 in10.0 miSSE (160°)5.8 mphClear
8:56 AM24.8 °F17.6 °F74 %29.68 in10.0 miSouth (170°)4.6 mphClear
9:16 AM24.8 °F17.6 °F74 %29.69 in10.0 miCalmClear
9:36 AM24.8 °F17.6 °F74 %29.69 in10.0 miCalmPartly Cloudy
9:56 AM23.0 °F17.6 °F80 %29.70 in10.0 miCalmPartly Cloudy
10:16 AM24.8 °F17.6 °F74 %29.70 in10.0 miCalmClear
10:36 AM26.6 °F17.6 °F69 %29.70 in10.0 miSSW (210°)5.8 mphMostly Cloudy
10:56 AM26.6 °F17.6 °F69 %29.70 in10.0 miWSW (250°)4.6 mphMostly Cloudy
11:16 AM30.2 °F19.4 °F64 %29.70 in10.0 miCalmPartly Cloudy
11:36 AM30.2 °F17.6 °F60 %29.71 in10.0 miSouth (190°)3.5 mphClear
11:56 AM30.2 °F17.6 °F60 %29.70 in10.0 miSouth (170°)8.1 mph16.1 mphClear
12:16 PM30.2 °F17.6 °F60 %29.70 in10.0 miSSE (160°)9.2 mphClear
12:36 PM32.0 °F19.4 °F60 %29.70 in10.0 miSSE (160°)9.2 mphClear
12:56 PM32.0 °F19.4 °F60 %29.70 in10.0 miSSE (160°)9.2 mph16.1 mphClear
1:16 PM32.0 °F17.6 °F55 %29.70 in10.0 miSSE (160°)9.2 mph17.3 mphClear
1:36 PM30.2 °F17.6 °F60 %29.70 in10.0 miSouth (170°)9.2 mphClear
1:56 PM30.2 °F17.6 °F60 %29.70 in10.0 miSSE (160°)6.9 mphPartly Cloudy
2:16 PM30.2 °F17.6 °F60 %29.70 in10.0 miSouth (170°)9.2 mphMostly Cloudy
2:36 PM30.2 °F17.6 °F60 %29.70 in10.0 miSSE (160°)5.8 mph16.1 mphOvercast
2:56 PM30.2 °F17.6 °F60 %29.70 in10.0 miSouth (170°)4.6 mphOvercast
3:16 PM30.2 °F19.4 °F64 %29.69 in10.0 miSSE (160°)4.6 mphOvercast
3:36 PM30.2 °F17.6 °F60 %29.69 in10.0 miSSE (160°)5.8 mphOvercast
3:56 PM28.4 °F17.6 °F64 %29.69 in10.0 miSouth (170°)5.8 mphOvercast
4:16 PM28.4 °F17.6 °F64 %29.69 in10.0 miSSE (160°)8.1 mphMostly Cloudy
4:36 PM28.4 °F17.6 °F64 %29.69 in10.0 miSouth (170°)4.6 mphMostly Cloudy
4:56 PM28.4 °F17.6 °F64 %29.69 in10.0 miSSE (160°)8.1 mphMostly Cloudy
5:16 PM28.4 °F17.6 °F64 %29.69 in10.0 miSouth (170°)6.9 mphScattered Clouds
5:36 PM28.4 °F17.6 °F64 %29.69 in10.0 miSouth (170°)4.6 mphScattered Clouds
5:56 PM26.6 °F17.6 °F69 %29.69 in10.0 miSouth (180°)5.8 mphMostly Cloudy
6:16 PM26.6 °F17.6 °F69 %29.69 in10.0 miSouth (180°)5.8 mphOvercast
6:36 PM28.4 °F17.6 °F64 %29.69 in10.0 miSouth (180°)5.8 mphOvercast
6:56 PM28.4 °F17.6 °F64 %29.69 in10.0 miSouth (170°)6.9 mphOvercast
7:16 PM28.4 °F17.6 °F64 %29.69 in10.0 miSouth (170°)4.6 mphMostly Cloudy
7:36 PM26.6 °F17.6 °F69 %29.69 in10.0 miSouth (180°)6.9 mphClear
7:56 PM26.6 °F15.8 °F64 %29.68 in10.0 miSouth (180°)4.6 mphClear
8:16 PM26.6 °F15.8 °F64 %29.69 in10.0 miSouth (190°)4.6 mphClear
8:36 PM26.6 °F15.8 °F64 %29.69 in10.0 miSSW (200°)4.6 mphClear
8:56 PM24.8 °F15.8 °F69 %29.69 in10.0 miSouth (180°)5.8 mphClear
9:16 PM24.8 °F15.8 °F69 %29.69 in10.0 miSSW (210°)4.6 mphClear
9:36 PM24.8 °F15.8 °F69 %29.69 in10.0 miCalmClear
9:56 PM24.8 °F17.6 °F74 %29.69 in10.0 miSouth (180°)5.8 mphClear
10:16 PM26.6 °F17.6 °F69 %29.69 in10.0 miSouth (190°)4.6 mphClear
10:36 PM28.4 °F19.4 °F69 %29.68 in10.0 miSouth (190°)9.2 mphMostly Cloudy
10:56 PM28.4 °F19.4 °F69 %29.68 in10.0 miSouth (190°)6.9 mphOvercast
11:16 PM28.4 °F19.4 °F69 %29.68 in10.0 miSouth (190°)4.6 mphOvercast
11:36 PM28.4 °F19.4 °F69 %29.68 in10.0 miCalmOvercast
11:56 PM26.6 °F19.4 °F74 %29.68 in10.0 miCalmOvercast
Hourly data recorded from PAIN, located miles away from McKinley Park, Alaska







STORIES FROM OUR PARTNERS